Coupe de la Ville de Verdun - MEUSE

Départementale

VERDUN

Le Dimanche 03 Avril 2011

Bassin de 25m

100 Brasse Dames

Séries

Nom Année Club Pays Temps Points Niv.
1 KUMAR Meena 1995 SN METZ FRA 1:19:00 1099 Departemental 25
2 MARCHIANO Julie 1997 SC THIONVILLE FRA 1:20:71 1059 Departemental 25
3 GASPERMENT Laure 1991 SN METZ FRA 1:24:65 969 Departemental 25
4 SAUER Mathilda 1996 SN METZ FRA 1:25:34 954 Departemental 25
5 RICHARD Oceane 1996 SN SEDAN FRA 1:32:78 797
6 VO Fanny 1994 SC THIONVILLE FRA 1:33:53 782
7 ASKIN Meryem 1996 CN COMMERCY FRA 1:33:58 781
8 SOLVES Laura 1999 SN METZ FRA 1:33:89 775
9 WOLF Emma 1997 SC THIONVILLE FRA 1:34:21 769
10 BERNARD Margaux 1999 SN METZ FRA 1:34:28 767
11 HANRIOT THOMAS Cassandre 1997 CN COMMERCY FRA 1:34:64 760
12 HILD Célia 1995 NAT'ARSOISE FRA 1:34:82 757
13 JANNAS Oceane 1999 SA VERDUN FRA 1:34:98 753
14 WESOLY Auriane 1998 SN METZ FRA 1:35:77 738
15 LEMAIRE Marine 1998 SC THIONVILLE FRA 1:36:50 724
16 GERARDIN Estelle 1995 CN COMMERCY FRA 1:36:55 723
17 RITTER Mélissa 1999 SC THIONVILLE FRA 1:37:37 707
18 STIEVENART Maelle 1996 SA VERDUN FRA 1:37:88 698
19 GARÇON Axelle 1996 SA VERDUN FRA 1:38:05 695
20 ORY Edeline 1993 ASN CHARLEVILLE-MÉZIÈRES FRA 1:39:34 671
21 BODART Léa 1999 SC THIONVILLE FRA 1:39:76 663
22 SACKSTEDER Léa 1997 SC THIONVILLE FRA 1:40:15 656
23 LOPEZ Doriane 1998 PIRANHAS MUSSIPONTAINS FRA 1:41:28 635
24 DUMONT Camille 1997 SA VERDUN FRA 1:41:87 625
25 MOSKWA Claire 1995 NAT'ARSOISE FRA 1:42:05 622
26 RAUSCH Justine 1998 NAT'ARSOISE FRA 1:42:39 616
27 ZAIM Omeya 1997 SN SEDAN FRA 1:45:47 562
28 ZAOUI Leila 1997 SC LANEUVEVILLE FRA 1:51:07 472
29 VIGNOL Marie-Laure 1997 SA VERDUN FRA 1:51:27 469
30 MATO Isaline 1998 CN COMMERCY FRA 1:53:20 439
31 MINELLE Constance 1999 ASN CHARLEVILLE-MÉZIÈRES FRA 1:55:62 404
32 FESSLER Betty 1997 CN COMMERCY FRA 1:57:40 379
33 LE LAY Marie-Pascale 1957 PIRANHAS MUSSIPONTAINS FRA 2:20:16 129
34 BERARDI Marine 1994 NAT'ARSOISE FRA - Disq.
35 PICAT Pernelle 1996 NAT'ARSOISE FRA - Disq.